Location: Davidschlag
(48.4333°N, 14.2833°E)
Time: 15:39:33
(UTC+00:00)

STARLINK-1024 - Pass Details

Date: 27 February 2020
Orbit: 548 x 551 km, 53.0° (Epoch: 28 March)

Event Time Altitude Azimuth Distance (km) Brightness Sun altitude
Rises 18:27:30 0° 269° (W) 2,715 8.8 -18.1°
Reaches altitude 10° 18:29:48 10° 275° (W) 1,823 7.5 -18.5°
Maximum altitude 18:33:48 47° 350° (N) 730 4.3 -19.1°
Enters shadow 18:35:13 33° 42° (NE) 939 4.5 -19.4°
